Date String (YYYY-MM-DD hh:mm:ss) UTC,Instrument flags,Ambient pressure (hPa),Sample flow (lpm),Bypass flow (lpm),Sample temperature (°C),Ambient temperature (°C),ASC tube jacket temperature (°C),LED temperature (°C),Box temperature (°C),Sample RH (%),Span deviation,Mass concentration (μg/m³),Mass concentration (μg/m³),Mass concentration (μg/m³)
DateTimeUTC,F1_M11,P_M11,Q1_M11,Q2_M11,T1_M11,T2_M11,T3_M11,T4_M11,T5_M11,U1_M11,ZSPAN_M11,X0_M11,X2_M11,X1_M11
2022-05-26 18:00:00,,0827.1,5.00,0.00,29.3,27.1,00.0,38.1,30.9,12.5,0000.0,0009.37,0003.49,0002.69
2022-05-26 18:01:00,,0827.1,5.00,0.00,29.2,27.2,00.0,38.1,30.9,12.1,0000.0,0009.07,0003.45,0002.68
2022-05-26 18:02:00,,0827.0,5.00,0.00,29.2,27.4,00.0,38.1,31.0,12.6,0000.0,0008.86,0003.45,0002.68
2022-05-26 18:03:00,,0827.1,5.00,0.00,29.2,27.5,00.0,38.1,31.0,13.1,0000.0,0009.27,0003.49,0002.68
2022-05-26 18:04:00,,0827.0,5.00,0.00,29.2,27.7,00.0,38.1,31.0,13.3,0000.0,0009.23,0003.51,0002.69
2022-05-26 18:05:00,,0827.1,5.02,0.00,29.2,27.8,00.0,38.1,31.1,13.9,0000.0,0009.03,0003.47,0002.69
2022-05-26 18:06:00,,0827.1,4.99,0.00,29.2,28.0,00.0,38.1,31.1,13.3,0000.0,0008.99,0003.46,0002.70
2022-05-26 18:07:00,,0827.1,5.01,0.00,29.3,28.1,00.0,38.1,31.2,13.2,0000.0,0009.13,0003.48,0002.69
2022-05-26 18:08:00,,0827.1,5.01,0.00,29.3,28.2,00.0,38.1,31.2,14.0,0000.0,0009.09,0003.48,0002.70
2022-05-26 18:09:00,,0827.1,5.01,0.00,29.3,28.3,00.0,38.1,31.2,13.6,0000.0,0009.24,0003.47,0002.69
2022-05-26 18:10:00,,0827.1,4.99,0.00,29.3,28.4,00.0,38.1,31.3,13.5,0000.0,0009.36,0003.48,0002.68
2022-05-26 18:11:00,,0827.1,5.00,0.00,29.4,28.4,00.0,38.2,31.3,13.1,0000.0,0009.62,0003.52,0002.68
2022-05-26 18:12:00,,0827.1,5.01,0.00,29.4,28.5,00.0,38.2,31.3,12.5,0000.0,0009.75,0003.52,0002.69
2022-05-26 18:13:00,,0827.1,4.99,0.00,29.4,28.6,00.0,38.2,31.4,12.6,0000.0,0009.77,0003.50,0002.68
2022-05-26 18:14:00,,0827.1,5.00,0.00,29.5,28.6,00.0,38.2,31.4,12.9,0000.0,0009.68,0003.49,0002.68
2022-05-26 18:15:00,,0827.0,5.01,0.00,29.5,28.7,00.0,38.2,31.4,12.8,0000.0,0009.53,0003.49,0002.70
2022-05-26 18:16:00,,0827.0,5.00,0.00,29.5,28.4,00.0,38.2,31.4,12.5,0000.0,0009.65,0003.51,0002.70
2022-05-26 18:17:00,,0827.0,5.00,0.00,29.4,27.4,00.0,38.2,31.1,13.4,0000.0,0010.36,0003.49,0002.69
2022-05-26 18:18:00,,0827.0,5.00,0.00,29.3,27.0,00.0,38.1,31.0,13.4,0000.0,0010.46,0003.46,0002.68
2022-05-26 18:19:00,,0827.0,5.01,0.00,29.3,27.0,00.0,38.1,30.9,13.5,0000.0,0009.94,0003.43,0002.65
2022-05-26 18:20:00,,0827.0,4.99,0.00,29.2,27.1,00.0,38.1,30.9,13.8,0000.0,0009.57,0003.41,0002.63
2022-05-26 18:21:00,,0827.0,4.99,0.00,29.2,27.2,00.0,38.1,31.0,13.9,0000.0,0009.19,0003.39,0002.62
2022-05-26 18:22:00,,0827.0,5.00,0.00,29.2,27.4,00.0,38.1,31.0,12.8,0000.0,0010.04,0003.38,0002.61
2022-05-26 18:23:00,,0827.0,5.00,0.00,29.2,27.6,00.0,38.1,31.0,12.6,0000.0,0010.70,0003.36,0002.60
2022-05-26 18:24:00,,0827.0,5.00,0.00,29.2,27.7,00.0,38.1,31.0,12.5,0000.0,0010.92,0003.36,0002.60
2022-05-26 18:25:00,,0826.9,5.00,0.00,29.2,27.9,00.0,38.1,31.1,12.6,0000.0,0010.48,0003.38,0002.59
2022-05-26 18:26:00,,0827.0,5.00,0.00,29.2,28.0,00.0,38.1,31.1,13.0,0000.0,0010.46,0003.40,0002.56
2022-05-26 18:27:00,,0826.9,5.01,0.00,29.2,28.1,00.0,38.1,31.2,13.5,0000.0,0011.31,0003.42,0002.55
2022-05-26 18:28:00,,0827.0,4.99,0.00,29.3,28.2,00.0,38.1,31.2,13.9,0000.0,0010.85,0003.48,0002.53
2022-05-26 18:29:00,,0827.0,5.00,0.00,29.3,28.3,00.0,38.1,31.2,13.4,0000.0,0010.51,0003.45,0002.51
2022-05-26 18:30:00,,0827.0,5.00,0.00,29.3,28.4,00.0,38.1,31.3,12.5,0000.0,0010.57,0003.45,0002.51
2022-05-26 18:31:00,,0827.0,4.99,0.00,29.4,28.4,00.0,38.1,31.3,12.2,0000.0,0011.15,0003.47,0002.50
2022-05-26 18:32:00,,0826.9,5.00,0.00,29.4,28.5,00.0,38.2,31.3,12.4,0000.0,0011.24,0003.47,0002.49
2022-05-26 18:33:00,,0827.0,5.01,0.00,29.4,28.6,00.0,38.2,31.4,12.6,0000.0,0010.62,0003.50,0002.50
2022-05-26 18:34:00,,0827.0,4.97,0.00,29.5,28.6,00.0,38.2,31.4,12.8,0000.0,0009.53,0003.48,0002.49
2022-05-26 18:35:00,,0826.9,5.01,0.00,29.4,28.0,00.0,38.2,31.2,12.1,0000.0,0009.22,0003.46,0002.47
2022-05-26 18:36:00,,0827.0,5.00,0.00,29.3,27.1,00.0,38.1,31.0,13.1,0000.0,0009.16,0003.43,0002.45
2022-05-26 18:37:00,,0827.0,5.00,0.00,29.3,26.8,00.0,38.1,30.9,14.1,0000.0,0008.82,0003.41,0002.45
2022-05-26 18:38:00,,0826.9,5.01,0.00,29.2,26.9,00.0,38.1,30.9,13.8,0000.0,0008.88,0003.39,0002.45
2022-05-26 18:39:00,,0827.0,5.00,0.00,29.1,27.0,00.0,38.0,30.8,13.4,0000.0,0008.87,0003.31,0002.44
2022-05-26 18:40:00,,0826.9,4.99,0.00,29.1,27.2,00.0,38.0,30.9,13.3,0000.0,0008.90,0003.33,0002.46
2022-05-26 18:41:00,,0826.9,5.02,0.00,29.1,27.3,00.0,38.0,30.9,13.9,0000.0,0008.86,0003.33,0002.46
2022-05-26 18:42:00,,0826.9,4.99,0.00,29.1,27.5,00.0,38.0,30.9,13.7,0000.0,0008.39,0003.29,0002.46
2022-05-26 18:43:00,,0826.8,5.00,0.00,29.1,27.7,00.0,38.0,31.0,13.8,0000.0,0008.12,0003.29,0002.48
2022-05-26 18:44:00,,0826.8,4.99,0.00,29.1,27.8,00.0,38.0,31.0,14.9,0000.0,0008.23,0003.30,0002.49
2022-05-26 18:45:00,,0826.8,5.01,0.00,29.2,27.9,00.0,38.0,31.1,14.8,0000.0,0008.18,0003.28,0002.49
2022-05-26 18:46:00,,0826.9,4.99,0.00,29.2,28.1,00.0,38.0,31.1,14.0,0000.0,0008.44,0003.35,0002.51
2022-05-26 18:47:00,,0827.0,5.01,0.00,29.2,28.2,00.0,38.0,31.1,13.1,0000.0,0008.58,0003.38,0002.53
2022-05-26 18:48:00,,0826.9,5.00,0.00,29.2,28.3,00.0,38.1,31.2,12.4,0000.0,0008.88,0003.42,0002.54
2022-05-26 18:49:00,,0826.8,5.00,0.00,29.3,28.4,00.0,38.1,31.2,13.1,0000.0,0008.68,0003.42,0002.54
2022-05-26 18:50:00,,0826.9,5.01,0.00,29.3,28.4,00.0,38.1,31.3,12.7,0000.0,0008.09,0003.45,0002.54
2022-05-26 18:51:00,,0826.8,5.00,0.00,29.3,28.5,00.0,38.1,31.3,13.3,0000.0,0008.49,0003.46,0002.55
2022-05-26 18:52:00,,0826.9,5.01,0.00,29.4,28.6,00.0,38.1,31.3,13.6,0000.0,0008.93,0003.47,0002.57
2022-05-26 18:53:00,,0826.9,5.00,0.00,29.4,28.6,00.0,38.2,31.4,12.5,0000.0,0009.38,0003.51,0002.59
2022-05-26 18:54:00,,0827.0,5.00,0.00,29.4,28.2,00.0,38.1,31.3,12.4,0000.0,0009.73,0003.56,0002.62
2022-05-26 18:55:00,,0826.9,5.02,0.00,29.3,27.2,00.0,38.1,31.0,12.5,0000.0,0009.64,0003.58,0002.65
2022-05-26 18:56:00,,0826.9,5.00,0.00,29.3,26.8,00.0,38.0,30.9,13.6,0000.0,0010.33,0003.63,0002.68
2022-05-26 18:57:00,,0826.8,5.00,0.00,29.2,26.8,00.0,38.0,30.8,12.7,0000.0,0010.15,0003.60,0002.70
2022-05-26 18:58:00,,0827.0,4.99,0.00,29.1,27.0,00.0,38.0,30.8,12.8,0000.0,0010.02,0003.58,0002.72
2022-05-26 18:59:00,,0826.9,5.00,0.00,29.1,27.1,00.0,38.0,30.8,13.8,0000.0,0010.28,0003.60,0002.74
